Regional Weather Roundup
Issued by NWS Bismarck, ND

Home | Current Version | Previous Version | Text Only | Print | Product List | Glossary On
Versions: 1 2 3 4 5 6 7 8 9 10 11 12 13 14 15 16 17 18 19 20 21 22 23 24 25 26 27 28 29 30 31 32 33 34 35 36 37 38 39 40 41 42 43 44 45 46 47 48 49 50
928
ASUS43 KBIS 120802
RWRBIS

NWR BROADCAST TEXT
NATIONAL WEATHER SERVICE BISMARCK ND
200 AM CST FRI FEB 12 2016

NOTE: "FAIR" INDICATES FEW OR NO CLOUDS BELOW 12,000 FEET WITH NO
SIGNIFICANT WEATHER AND/OR OBSTRUCTIONS TO VISIBILITY.


CITY           SKY/WX    TMP DP  RH WIND       PRES   REMARKS
WILLISTON      CLOUDY    18  12  77 N13       30.39R WCI   5
MINOT          CLOUDY     8  -1  66 N10       30.39R WCI  -6
MINOT AFB      CLOUDY     6   1  79 CALM      30.39
BISMARCK       CLOUDY    20  14  77 NW3       30.34R
DICKINSON      CLOUDY    19  15  84 N8        30.27S WCI   9
GARRISON         N/A     13   8  81 N10G17    30.34R WCI   0
HETTINGER ARPT CLOUDY    23  19  85 N7        30.30R WCI  15
JAMESTOWN      CLOUDY    11   6  81 N10       30.31R WCI  -3
HAZEN          CLOUDY    18  14  86 N10       30.37R WCI   6
LINTON         FLURRIES  18  16  93 NW7       30.34R WCI   8
MANDAN         CLOUDY    16  14  93 NW6       30.33R WCI   7
OAKES          FLURRIES   9   7  92 NW10      30.32R WCI  -6
STANLEY        FLURRIES  12  10  92 N9G15     30.36R WCI   0
WATFORD CITY   FLURRIES  18  16  93 N8        30.36R WCI   7
$$

CITY           SKY/WX    TMP DP  RH WIND       PRES   REMARKS
GRAND FORKS    CLEAR      4  -4  69 N10       30.37R WCI -11
GRAND FORKS AF CLEAR      4  -4  69 N10       30.36R WCI -11
DEVILS LAKE    PTCLDY    -3  -6  87 NW12      30.35R WCI -21
FARGO          CLOUDY     8   1  73 N13       30.33R WCI  -8
GRAFTON        FAIR       5  -4  66 N22       30.39R WCI -16
GWINNER        CLOUDY    12   9  85 NW9       30.32R WCI   0
LANGDON        FAIR      -2  -8  78 N15       30.33R WCI -22
$$

CITY           SKY/WX    TMP DP  RH WIND       PRES   REMARKS
ABERDEEN       CLOUDY    14   9  80 NW7       30.33R WCI   4
MOBRIDGE       CLOUDY    21  16  81 N9        30.29R WCI  11
BUFFALO          N/A     28  23  81 NW14      30.19S WCI  17
RAPID CITY     CLOUDY    31  27  85 N3        30.24S
GLASGOW        CLOUDY    27  22  81 E9        30.34R WCI  18
SIDNEY         CLOUDY    21  16  79 NE6       30.37R WCI  14
WOLF POINT     CLOUDY    24  17  74 E10       30.38R WCI  14
GLENDIVE       CLOUDY    23  19  86 NE6       30.35R WCI  16
MILES CITY     CLOUDY    31  27  85 CALM      30.30S
BAKER          CLOUDY    26  21  81 NW6       30.28R WCI  19
$$

CITY           SKY/WX    TMP DP  RH WIND       PRES   REMARKS
BILLINGS       CLOUDY    32  27  81 NW6       30.26S
GREAT FALLS    CLOUDY    31  27  85 E3        30.24F
$$





USA.gov is the U.S. government's official web portal to all federal, state and local government web resources and services.